�N����,����,�~����,�C��,���x,�C��,����,���ϕ���,�ő�u�ԕ���,�ő厞����,���˗�,�I�_���x,�n�����x,�ő啗���N��,DTYPE
"22/11/07","00:10",0.0,8.7,86.1,1018.2,336.8,2.1,3.6,340.6,0.00,6.5,14.2,"00:09:36",1
"22/11/07","00:20",0.0,8.8,85.8,1018.0,330.4,3.1,4.8,329.6,0.00,6.6,14.2,"00:17:52",1
"22/11/07","00:30",0.0,8.9,85.4,1018.0,337.1,3.5,5.6,340.0,0.00,6.6,14.0,"00:23:28",1
"22/11/07","00:40",0.0,9.0,85.1,1018.0,313.2,3.0,4.9,321.0,0.00,6.7,14.1,"00:34:48",1
"22/11/07","00:50",0.0,9.3,84.5,1018.0,328.5,3.2,5.7,338.7,0.00,6.9,14.2,"00:43:04",1
"22/11/07","01:00",0.0,9.2,83.8,1018.0,332.8,2.8,4.4,338.1,0.00,6.6,14.1,"00:56:56",1
"22/11/07","01:10",0.0,9.2,83.7,1018.0,326.7,2.6,4.7,342.8,0.00,6.6,14.0,"01:03:36",1
"22/11/07","01:20",0.0,8.6,83.7,1018.0,280.2,0.7,1.7,251.5,0.00,6.0,13.7,"01:19:52",1
"22/11/07","01:30",0.0,8.2,84.6,1017.8,318.2,1.7,2.7,294.4,0.00,5.8,13.9,"01:29:44",1
"22/11/07","01:40",0.0,7.9,85.5,1018.0,290.9,1.2,3.2,320.1,0.00,5.7,14.1,"01:39:04",1
"22/11/07","01:50",0.0,7.6,86.3,1018.0,296.4,1.2,2.7,326.3,0.00,5.5,13.9,"01:40:24",1
"22/11/07","02:00",0.0,7.2,87.2,1017.5,304.8,2.0,2.8,318.5,0.00,5.3,13.7,"01:54:16",1
"22/11/07","02:10",0.0,7.1,88.1,1017.5,297.4,2.1,3.3,311.0,0.00,5.3,13.9,"02:09:44",1
"22/11/07","02:20",0.0,7.3,88.9,1017.3,300.2,2.2,3.2,305.1,0.00,5.6,13.8,"02:18:24",1
"22/11/07","02:30",0.0,7.4,89.3,1017.5,293.4,2.2,2.9,324.3,0.00,5.8,14.0,"02:20:08",1
"22/11/07","02:40",0.0,7.2,89.7,1017.3,300.2,1.7,2.6,314.6,0.00,5.7,13.8,"02:32:24",1
"22/11/07","02:50",0.0,6.7,90.0,1017.3,295.8,1.8,2.9,308.8,0.00,5.2,13.7,"02:42:32",1
"22/11/07","03:00",0.0,6.6,90.7,1017.3,286.9,1.7,3.2,315.2,0.00,5.2,13.8,"02:59:44",1
"22/11/07","03:10",0.0,7.0,91.2,1017.8,315.4,2.7,4.1,327.0,0.00,5.7,13.8,"03:07:28",1
"22/11/07","03:20",0.0,7.4,91.3,1017.3,314.3,3.1,4.8,324.6,0.00,6.1,13.6,"03:13:04",1
"22/11/07","03:30",0.0,7.5,91.5,1017.5,315.4,2.7,3.9,334.7,0.00,6.2,13.7,"03:24:00",1
"22/11/07","03:40",0.0,7.6,91.7,1017.8,298.9,2.5,4.0,321.5,0.00,6.4,13.6,"03:32:32",1
"22/11/07","03:50",0.0,7.6,91.6,1017.5,313.9,2.3,3.6,330.8,0.00,6.4,13.5,"03:43:44",1
"22/11/07","04:00",0.0,7.1,91.8,1017.5,322.7,2.0,3.4,326.7,0.00,5.9,13.5,"03:56:08",1
"22/11/07","04:10",0.0,6.5,91.8,1017.1,290.7,1.3,2.8,321.4,0.00,5.3,13.7,"04:08:40",1
"22/11/07","04:20",0.0,6.3,92.1,1017.8,294.5,2.1,3.1,318.6,0.00,5.2,13.5,"04:14:16",1
"22/11/07","04:30",0.0,6.4,92.6,1017.3,305.1,2.2,3.6,303.0,0.00,5.3,13.4,"04:27:04",1
"22/11/07","04:40",0.0,6.6,92.7,1017.3,293.7,2.5,3.4,303.7,0.00,5.5,13.5,"04:32:16",1
"22/11/07","04:50",0.0,6.4,92.9,1017.3,294.6,2.2,3.1,312.6,0.00,5.4,13.3,"04:47:04",1
"22/11/07","05:00",0.0,6.4,93.1,1017.3,321.9,2.0,3.3,308.2,0.00,5.4,13.5,"04:51:28",1
"22/11/07","05:10",0.0,5.9,93.1,1017.3,300.0,1.6,2.9,320.7,0.00,4.9,13.4,"05:03:36",1
"22/11/07","05:20",0.0,6.0,93.7,1017.1,318.7,1.8,3.6,332.6,0.00,5.1,13.2,"05:16:56",1
"22/11/07","05:30",0.0,5.9,93.7,1017.3,295.2,1.6,2.6,316.0,0.00,5.0,13.5,"05:29:04",1
"22/11/07","05:40",0.0,5.8,93.9,1017.3,317.7,2.1,2.7,314.7,0.00,4.9,13.5,"05:37:52",1
"22/11/07","05:50",0.0,5.3,94.1,1017.3,289.6,1.1,2.0,315.8,0.00,4.5,13.3,"05:40:32",1
"22/11/07","06:00",0.0,5.3,94.3,1017.3,310.7,1.6,2.4,319.8,0.00,4.5,13.3,"05:54:08",1
"22/11/07","06:10",0.0,5.0,94.6,1017.1,289.0,1.2,2.7,307.6,0.00,4.2,13.4,"06:00:02",1
"22/11/07","06:20",0.0,5.2,94.8,1017.1,299.6,0.8,1.8,288.1,0.00,4.5,13.3,"06:10:32",1
"22/11/07","06:30",0.0,5.0,94.8,1017.1,279.3,1.3,1.8,265.3,0.00,4.3,13.1,"06:22:00",1
"22/11/07","06:40",0.0,4.8,95.0,1016.8,287.8,1.1,2.0,312.7,0.00,4.1,13.3,"06:30:02",1
"22/11/07","06:50",0.0,4.8,95.2,1017.1,313.5,2.0,2.4,314.1,0.00,4.1,13.0,"06:45:20",1
"22/11/07","07:00",0.0,4.7,95.4,1017.1,300.7,1.6,2.1,314.0,0.00,4.1,13.2,"06:50:16",1
"22/11/07","07:10",0.0,4.5,95.6,1017.3,291.7,1.2,2.0,315.3,0.00,3.9,13.1,"07:08:40",1
"22/11/07","07:20",0.0,4.9,95.7,1017.1,298.4,1.6,2.5,308.0,0.00,4.3,13.1,"07:15:36",1
"22/11/07","07:30",0.0,4.9,95.8,1017.3,276.1,1.3,1.7,265.9,0.00,4.3,12.8,"07:25:44",1
"22/11/07","07:40",0.0,6.0,96.1,1017.1,298.8,2.7,3.7,310.0,0.01,5.5,12.8,"07:38:40",1
"22/11/07","07:50",0.0,6.8,96.0,1017.8,310.3,2.2,3.6,318.2,0.01,6.2,12.7,"07:41:44",1
"22/11/07","08:00",0.0,7.7,95.8,1017.5,323.7,1.3,2.6,311.1,0.03,7.1,12.9,"07:51:12",1
"22/11/07","08:10",0.0,8.3,95.3,1017.8,242.6,0.6,1.7,324.0,0.04,7.6,12.8,"08:00:42",1
"22/11/07","08:20",0.0,8.8,94.9,1017.8,265.7,0.2,0.9,304.2,0.05,8.1,12.7,"08:13:46",1
"22/11/07","08:30",0.0,9.2,94.7,1018.2,291.9,0.7,1.4,340.6,0.07,8.4,12.9,"08:28:56",1
"22/11/07","08:40",0.0,9.7,93.9,1018.2,339.7,0.7,1.4,338.1,0.10,8.8,12.8,"08:38:40",1
"22/11/07","08:50",0.0,10.0,92.9,1018.2,289.9,1.0,2.1,244.1,0.08,8.9,12.9,"08:48:48",1
"22/11/07","09:00",0.0,10.2,92.7,1018.5,296.4,1.6,2.4,308.4,0.12,9.1,13.0,"08:51:20",1
"22/11/07","09:10",0.0,10.7,91.0,1019.2,286.8,1.3,2.1,288.0,0.19,9.3,12.8,"09:09:36",1
"22/11/07","09:20",0.0,11.4,88.5,1019.4,291.6,1.2,2.1,330.4,0.15,9.6,12.7,"09:17:44",1
"22/11/07","09:30",0.0,11.2,85.8,1019.2,265.4,1.3,2.7,239.4,0.11,9.0,12.9,"09:27:20",1
"22/11/07","09:40",0.0,11.6,84.6,1019.2,259.5,1.7,2.8,243.5,0.26,9.1,12.8,"09:34:16",1
"22/11/07","09:50",0.0,12.2,82.2,1019.0,260.3,1.5,2.4,327.5,0.28,9.3,12.7,"09:42:16",1
"22/11/07","10:00",0.0,13.0,79.6,1019.0,251.9,0.7,2.0,244.1,0.30,9.6,12.9,"09:51:04",1
"22/11/07","10:10",0.0,14.0,76.8,1019.0,300.5,0.8,2.0,240.5,0.32,10.0,12.9,"10:00:08",1
"22/11/07","10:20",0.0,14.2,71.3,1018.7,233.7,1.0,2.4,201.5,0.34,9.1,13.2,"10:12:00",1
"22/11/07","10:30",0.0,14.9,68.2,1019.0,259.8,0.8,2.2,243.8,0.36,9.1,13.2,"10:28:08",1
"22/11/07","10:40",0.0,15.4,67.5,1018.2,238.3,0.6,1.4,253.3,0.38,9.5,13.1,"10:34:24",1
"22/11/07","10:50",0.0,16.0,65.0,1018.7,215.3,0.7,2.4,226.7,0.39,9.5,13.3,"10:49:12",1
"22/11/07","11:00",0.0,16.1,62.6,1017.8,260.4,1.1,2.0,242.4,0.40,9.0,13.3,"10:50:16",1
"22/11/07","11:10",0.0,16.6,61.7,1017.8,236.6,1.0,1.9,241.0,0.41,9.3,13.2,"11:02:08",1
"22/11/07","11:20",0.0,17.3,59.2,1017.3,203.1,0.8,1.9,183.1,0.42,9.3,13.5,"11:12:56",1
"22/11/07","11:30",0.0,17.6,54.9,1017.1,217.6,0.8,1.8,204.3,0.43,8.5,13.4,"11:20:24",1
"22/11/07","11:40",0.0,17.9,51.1,1016.6,211.1,0.8,2.2,226.1,0.44,7.7,13.5,"11:36:24",1
"22/11/07","11:50",0.0,18.2,51.5,1016.4,222.5,1.0,2.2,219.0,0.44,8.1,13.7,"11:49:52",1
"22/11/07","12:00",0.0,18.6,50.3,1016.4,182.0,0.7,2.1,233.3,0.44,8.1,13.6,"11:51:04",1
"22/11/07","12:10",0.0,19.1,47.9,1015.9,235.2,0.7,1.8,107.6,0.44,7.9,13.9,"12:07:04",1
"22/11/07","12:20",0.0,19.1,47.0,1015.9,243.5,1.0,2.4,209.1,0.45,7.6,14.0,"12:11:20",1
"22/11/07","12:30",0.0,19.1,48.3,1015.6,234.2,1.5,2.9,222.6,0.44,8.0,13.9,"12:26:40",1
"22/11/07","12:40",0.0,18.7,48.1,1015.2,216.0,1.8,3.7,193.2,0.44,7.5,14.0,"12:32:00",1
"22/11/07","12:50",0.0,19.6,47.8,1014.7,284.6,0.8,1.7,247.9,0.43,8.3,14.1,"12:42:24",1
"22/11/07","13:00",0.0,19.7,46.6,1014.9,189.0,1.1,2.8,119.5,0.43,8.0,14.3,"12:52:00",1
"22/11/07","13:10",0.0,20.2,46.6,1014.7,230.1,0.7,1.6,209.7,0.42,8.5,14.3,"13:00:08",1
"22/11/07","13:20",0.0,20.3,44.2,1014.5,224.0,0.8,2.6,243.7,0.41,7.8,14.4,"13:12:40",1
"22/11/07","13:30",0.0,20.6,42.7,1014.0,205.7,0.6,1.7,150.4,0.40,7.5,14.5,"13:22:08",1
"22/11/07","13:40",0.0,20.6,45.8,1013.8,177.4,1.0,3.1,224.6,0.39,8.6,14.7,"13:39:20",1
"22/11/07","13:50",0.0,20.6,42.0,1013.3,228.1,1.0,2.0,197.0,0.38,7.3,14.8,"13:46:00",1
"22/11/07","14:00",0.0,20.6,43.3,1013.8,246.9,1.3,3.1,213.4,0.36,7.7,14.8,"13:59:52",1
"22/11/07","14:10",0.0,20.3,43.3,1013.5,198.3,1.5,3.4,124.9,0.35,7.5,14.8,"14:03:36",1
"22/11/07","14:20",0.0,20.5,42.7,1013.5,199.2,1.0,2.1,135.4,0.33,7.4,14.8,"14:14:08",1
"22/11/07","14:30",0.0,20.7,45.2,1013.5,195.4,1.1,4.2,230.5,0.31,8.5,15.0,"14:28:16",1
"22/11/07","14:40",0.0,20.6,43.6,1013.5,189.1,1.1,2.2,185.2,0.29,7.8,15.1,"14:38:32",1
"22/11/07","14:50",0.0,20.8,43.6,1013.3,197.2,1.1,3.3,215.7,0.27,8.0,15.2,"14:47:36",1
"22/11/07","15:00",0.0,20.9,41.4,1013.3,201.9,1.0,2.6,183.2,0.25,7.4,15.2,"14:50:48",1
"22/11/07","15:10",0.0,20.7,43.8,1013.3,207.1,1.5,3.4,219.1,0.23,8.0,15.2,"15:06:32",1
"22/11/07","15:20",0.0,20.9,42.0,1013.5,193.9,1.0,2.2,318.7,0.21,7.6,15.2,"15:13:44",1
"22/11/07","15:30",0.0,20.8,44.5,1013.3,212.0,1.1,3.1,243.0,0.15,8.3,15.3,"15:21:12",1
"22/11/07","15:40",0.0,20.0,44.3,1013.3,231.2,0.8,2.4,218.4,0.09,7.5,15.5,"15:39:12",1
"22/11/07","15:50",0.0,19.7,48.5,1013.5,230.2,1.0,2.5,232.5,0.09,8.6,15.4,"15:42:08",1
"22/11/07","16:00",0.0,19.9,45.2,1013.5,248.6,0.7,1.9,223.6,0.11,7.7,15.4,"15:53:52",1
"22/11/07","16:10",0.0,19.7,47.1,1013.5,255.3,0.6,2.5,239.4,0.04,8.2,15.4,"16:02:48",1
"22/11/07","16:20",0.0,19.0,50.5,1013.5,227.8,0.3,1.4,223.1,0.02,8.5,15.5,"16:13:52",1
"22/11/07","16:30",0.0,18.5,55.2,1013.5,289.5,0.7,1.3,241.1,0.02,9.4,15.6,"16:23:20",1
"22/11/07","16:40",0.0,18.6,55.7,1013.5,302.8,0.8,1.6,341.4,0.05,9.6,15.7,"16:32:48",1
"22/11/07","16:50",0.0,18.9,55.2,1013.5,274.7,1.0,1.4,244.9,0.04,9.8,15.7,"16:41:12",1
"22/11/07","17:00",0.0,18.1,57.2,1013.8,292.9,0.8,1.7,309.8,0.00,9.5,15.6,"16:50:24",1
"22/11/07","17:10",0.0,17.0,61.1,1014.0,301.4,1.1,1.8,345.2,0.00,9.5,15.8,"17:00:02",1
"22/11/07","17:20",0.0,16.3,64.6,1014.2,336.8,1.5,2.1,348.1,0.00,9.7,15.5,"17:19:20",1
"22/11/07","17:30",0.0,15.9,66.7,1014.2,305.9,1.3,2.4,347.9,0.00,9.8,15.5,"17:20:24",1
"22/11/07","17:40",0.0,15.7,68.1,1014.2,310.0,1.1,1.6,323.8,0.00,9.9,15.6,"17:39:52",1
"22/11/07","17:50",0.0,15.4,69.0,1014.5,319.2,1.2,1.9,311.1,0.00,9.8,15.5,"17:40:16",1
"22/11/07","18:00",0.0,15.1,69.3,1014.2,316.3,1.1,2.0,322.4,0.00,9.6,15.5,"17:50:02",1
"22/11/07","18:10",0.0,15.1,69.0,1014.7,293.4,1.1,1.8,338.9,0.00,9.5,15.5,"18:05:12",1
"22/11/07","18:20",0.0,14.9,69.2,1014.9,310.4,1.2,2.0,325.5,0.00,9.4,15.8,"18:13:12",1
"22/11/07","18:30",0.0,14.6,70.0,1014.7,312.0,1.2,2.6,348.5,0.00,9.2,15.5,"18:27:52",1
"22/11/07","18:40",0.0,14.3,71.2,1014.7,319.7,1.5,2.8,318.2,0.00,9.2,15.5,"18:33:32",1
"22/11/07","18:50",0.0,13.8,72.2,1014.7,300.7,1.2,1.9,337.2,0.00,8.9,15.6,"18:44:40",1
"22/11/07","19:00",0.0,13.3,73.4,1015.4,308.5,1.1,1.9,314.3,0.00,8.7,15.5,"18:50:50",1
"22/11/07","19:10",0.0,13.2,75.0,1015.2,317.0,1.5,1.8,317.4,0.00,8.9,15.3,"19:02:58",1
"22/11/07","19:20",0.0,12.9,76.2,1015.2,311.7,1.5,2.1,345.5,0.00,8.9,15.6,"19:14:12",1
"22/11/07","19:30",0.0,12.7,77.8,1015.4,265.2,1.5,1.7,250.0,0.00,9.0,15.4,"19:26:06",1
"22/11/07","19:40",0.0,12.6,78.8,1015.2,265.2,2.0,2.0,272.2,0.00,9.1,15.3,"19:33:56",1
"22/11/07","19:50",0.0,12.4,79.4,1015.6,322.4,1.6,1.6,322.4,0.00,9.0,15.5,"19:49:54",1
"22/11/07","20:00",0.0,12.1,80.5,1015.6,311.8,1.7,1.9,326.5,0.00,8.9,15.2,"19:50:50",1
"22/11/07","20:10",0.0,11.9,81.5,1015.6,299.1,2.0,2.6,320.1,0.00,8.9,15.2,"20:00:16",1
"22/11/07","20:20",0.0,11.8,82.2,1015.6,326.1,2.0,2.5,327.4,0.00,8.9,15.2,"20:16:48",1
"22/11/07","20:30",0.0,12.0,82.2,1015.4,320.0,3.0,3.6,331.7,0.00,9.1,15.2,"20:26:38",1
"22/11/07","20:40",0.0,11.9,82.1,1015.6,308.8,1.7,1.8,311.7,0.00,9.0,15.0,"20:34:38",1
"22/11/07","20:50",0.0,11.5,82.6,1015.9,323.3,2.0,3.3,337.8,0.00,8.7,15.0,"20:47:58",1
"22/11/07","21:00",0.0,11.4,83.3,1015.6,323.8,2.5,4.4,338.5,0.00,8.7,15.2,"20:58:44",1
"22/11/07","21:10",0.0,11.4,83.6,1015.9,313.7,2.1,2.6,294.8,0.00,8.8,15.2,"21:08:56",1
"22/11/07","21:20",0.0,11.5,83.6,1015.9,308.7,2.1,3.7,321.3,0.00,8.9,15.0,"21:17:38",1
"22/11/07","21:30",0.0,11.5,83.7,1015.9,325.3,2.6,3.3,329.9,0.00,8.9,15.1,"21:26:02",1
"22/11/07","21:40",0.0,11.4,84.0,1015.9,315.6,2.6,3.9,321.1,0.00,8.8,14.8,"21:39:30",1
"22/11/07","21:50",0.0,11.4,83.9,1016.4,294.1,2.2,3.9,318.1,0.00,8.8,14.9,"21:41:22",1
"22/11/07","22:00",0.0,11.3,84.3,1016.4,305.7,2.0,2.9,309.0,0.00,8.8,15.0,"21:59:58",1
"22/11/07","22:10",0.0,11.3,84.6,1016.1,304.0,2.2,3.4,309.7,0.00,8.8,14.9,"22:04:56",1
"22/11/07","22:20",0.0,11.5,84.6,1016.4,312.3,2.7,3.5,317.1,0.00,9.0,14.8,"22:15:04",1
"22/11/07","22:30",0.0,11.5,84.4,1016.1,301.8,2.6,3.6,320.4,0.00,9.0,14.8,"22:23:48",1
"22/11/07","22:40",0.0,11.4,84.4,1016.1,320.6,2.6,3.5,339.7,0.00,8.9,14.7,"22:35:36",1
"22/11/07","22:50",0.0,11.2,84.5,1016.4,320.4,2.0,3.7,319.6,0.00,8.7,14.8,"22:44:56",1
"22/11/07","23:00",0.0,10.9,85.0,1016.4,327.6,2.1,3.2,345.6,0.00,8.5,14.9,"22:50:30",1
"22/11/07","23:10",0.0,10.8,85.6,1016.1,327.9,2.1,3.4,326.9,0.00,8.5,14.5,"23:03:20",1
"22/11/07","23:20",0.0,10.7,86.0,1016.1,332.1,2.1,3.5,333.1,0.00,8.5,14.8,"23:13:48",1
"22/11/07","23:30",0.0,10.4,86.5,1016.1,322.9,2.1,2.9,330.4,0.00,8.3,14.6,"23:23:00",1
"22/11/07","23:40",0.0,10.2,87.1,1015.9,332.1,2.3,3.5,344.6,0.00,8.2,14.5,"23:31:44",1
"22/11/07","23:50",0.0,10.2,87.7,1015.9,339.7,2.2,3.5,342.4,0.00,8.3,14.6,"23:49:02",1
"22/11/07","24:00",0.0,10.2,88.1,1015.6,335.2,2.0,2.8,342.8,0.00,8.4,14.6,"23:57:06",1
